[[{"header":{"parameterUnit":"m.s-1","parameterCategory":1,"la1":30.2991,"la2":30.254,"lo1":-89.0895,"lo2":-89.0444,"dx":0.0017,"dy":0.0017,"nx":28,"ny":28,"refTime":"2023-01-21T15:00:00:Z","depth":0,"parameterNumber":2,"parameterNumberName":"U-component_of_WINDS"},"data":[0,0,0,0,0,0,0,0,0,0,0,0,0,0,0,0,0,0,0,0,0,0,0,0,0,0,0,0,0,0,0,0,0,0,0,0,0,0,0,0,0,0,0,0,0,0,0,0,0,0,0,0,0,0,0,0,0,0,-2.6459,-2.6459,0,-2.6435,-2.6435,-2.6435,-2.6346,-2.6344,-2.6342,-2.634,-2.6319,-2.632,-2.6321,0,0,0,0,0,0,0,0,0,0,0,0,0,-2.6432,-2.6433,-2.646,-2.6459,-2.6459,-2.6435,-2.6435,-2.6435,-2.6346,-2.6344,-2.6342,-2.6339,-2.6318,-2.632,-2.6321,0,0,0,0,0,0,0,0,0,0,0,0,0,-2.643,-2.6434,-2.646,-2.6412,-2.6407,-2.6435,-2.6435,-2.6435,-2.6347,-2.6344,-2.6341,-2.6338,-2.6318,-2.6319,-2.6321,-2.6394,0,0,-2.6327,-2.6328,0,0,0,0,0,0,0,0,-2.643,-2.6431,-2.6419,-2.6415,-2.641,-2.639,-2.6417,-2.6421,-2.6348,-2.637,-2.634,-2.6337,-2.6345,-2.6345,-2.6347,-2.6393,-2.6392,-2.6328,-2.6329,-2.633,-2.633,0,0,0,0,0,0,0,-2.643,-2.6432,-2.645,-2.6419,-2.6414,-2.6393,-2.6389,-2.6418,-2.6375,-2.6368,-2.6361,-2.636,-2.6342,-2.6345,-2.6346,-2.6392,-2.6328,-2.6329,-2.633,-2.6331,-2.6498,-2.6501,0,0,0,0,0,0,-2.6437,-2.6432,-2.6451,-2.6449,-2.6413,-2.6396,-2.6392,-2.64,-2.6374,-2.6368,-2.6362,-2.6356,-2.6343,-2.6344,-2.6345,-2.6429,-2.633,-2.6331,-2.6333,-2.6495,-2.6499,-2.6502,0,0,0,0,0,0,-2.6437,-2.6439,-2.6452,-2.6439,-2.6439,-2.6399,-2.641,-2.6401,-2.6404,-2.637,-2.6362,-2.6373,-2.6341,-2.6342,-2.6383,-2.6427,-2.6332,-2.6334,-2.6491,-2.6496,-2.65,-2.6599,0,0,0,0,0,0,-2.6436,-2.644,-2.6467,-2.644,-2.644,-2.649,-2.6412,-2.6403,-2.6407,-2.6398,-2.6378,-2.6372,-2.6339,-2.638,-2.6385,-2.6428,-2.6336,-2.6487,-2.6493,-2.6499,-2.6592,-2.6607,-2.662,0,0,0,0,0,-2.6436,-2.6496,-2.6468,-2.6471,-2.6472,-2.6492,-2.6492,-2.6452,-2.6411,-2.6438,-2.6416,-2.6373,-2.6421,-2.6385,-2.6389,-2.6434,-2.6484,-2.6491,-2.6498,-2.6585,-2.6604,-2.6619,0,0,0,0,0,0,-2.653,-2.6491,-2.6461,-2.6514,-2.6507,-2.6477,-2.651,-2.6472,-2.6478,-2.6469,-2.6419,-2.6416,-2.6464,-2.6453,-2.6413,-2.6504,-2.6445,-2.6454,-2.651,-2.6527,-2.6541,-2.6544,-2.6337,0,0,0,0,0,-2.6556,-2.6575,-2.6541,-2.6591,-2.6589,-2.655,-2.6558,-2.6527,-2.6518,-2.6515,-2.6496,-2.649,-2.6504,-2.6515,-2.6525,-2.6589,-2.6584,-2.6622,-2.6636,-2.6647,-2.6656,-2.669,-2.6707,-2.6526,-2.6526,-2.6526,0,0,-2.6612,-2.6593,-2.6608,-2.6609,-2.66,-2.6622,-2.6549,-2.6574,-2.659,-2.6519,-2.6557,-2.6543,-2.6533,-2.6586,-2.6608,-2.6578,-2.6705,-2.6657,-2.6666,-2.6669,-2.67,-2.6717,-2.6732,-2.6531,-2.653,-2.6529,0,0,-2.6725,-2.6712,-2.6753,-2.6745,-2.6732,-2.6706,-2.6716,-2.6692,-2.668,-2.6716,-2.6664,-2.6682,-2.6707,-2.6703,-2.6704,-2.6815,-2.6775,-2.6819,-2.6893,-2.6927,-2.6942,-2.6954,-2.6996,-2.7011,-2.6828,-2.6828,-2.6828,0,-2.6797,-2.6826,-2.6779,-2.6808,-2.6811,-2.6746,-2.6788,-2.6783,-2.6775,-2.6779,-2.6745,-2.6775,-2.6763,-2.6815,-2.6842,-2.6844,-2.6856,-2.6823,-2.6943,-2.6955,-2.6966,-2.7005,-2.7021,-2.6834,-2.6833,-2.6832,-2.6832,0,-2.6915,-2.6937,-2.6971,-2.6964,-2.697,-2.7006,-2.6966,-2.6978,-2.6946,-2.6924,-2.6963,-2.6947,-2.6954,-2.6963,-2.6933,-2.7011,-2.6993,-2.6952,-2.6892,-2.699,-2.7026,-2.704,-2.6842,-2.684,-2.6838,-2.6837,0,0,-2.7089,-2.7055,-2.7068,-2.7065,-2.7045,-2.7061,-2.7094,-2.71,-2.7112,-2.7108,-2.7136,-2.7158,-2.712,-2.7121,-2.7089,-2.7119,-2.721,-2.7074,-2.7073,-2.7102,-2.7297,-2.733,-2.7348,-2.7183,-2.7185,-2.7187,-2.7299,0,-2.7198,-2.7251,-2.721,-2.7272,-2.7292,-2.723,-2.7259,-2.7251,-2.7231,-2.7246,-2.7224,-2.7241,-2.7188,-2.7189,-2.7215,-2.7194,-2.7249,-2.7185,-2.721,-2.7211,-2.7217,-2.7367,-2.7401,-2.7507,-2.7312,-2.7315,-2.7316,0,-2.7333,-2.7334,-2.7398,-2.7375,-2.7382,-2.7408,-2.7411,-2.7425,-2.7415,-2.7398,-2.7399,-2.736,-2.7392,-2.7332,-2.7376,-2.7333,-2.734,-2.7332,-2.7335,-2.7337,-2.7272,-2.7376,-2.754,-2.7557,-2.7338,-2.7336,-2.7334,0,-2.7456,-2.7473,-2.7514,-2.7512,-2.7486,-2.7506,-2.7496,-2.7483,-2.7489,-2.7491,-2.7495,-2.7502,-2.7506,-2.7512,-2.7476,-2.7435,-2.7525,-2.7462,-2.7514,-2.7516,-2.7538,-2.7538,-2.7708,-2.7539,-2.7539,-2.7539,-2.7539,0,-2.7583,-2.7625,-2.7569,-2.7594,-2.7639,-2.7592,-2.7638,-2.7622,-2.761,-2.7632,-2.7579,-2.7601,-2.7551,-2.7568,-2.7539,-2.7581,-2.7583,-2.7572,-2.7565,-2.7578,-2.758,-2.7584,-2.7577,-2.7543,-2.7542,-2.7541,-2.7541,0,-2.7729,-2.7693,-2.7733,-2.7704,-2.7698,-2.7733,-2.7709,-2.7732,-2.7707,-2.7736,-2.774,-2.7703,-2.772,-2.7684,-2.7696,-2.7677,-2.7737,-2.7717,-2.7741,-2.7736,-2.7791,-2.7788,-2.7973,-2.7995,-2.781,-2.7812,-2.7813,0,-2.7814,-2.7845,-2.7819,-2.7829,-2.7822,-2.784,-2.7845,-2.7799,-2.7808,-2.7799,-2.7823,-2.7836,-2.7844,-2.7874,-2.7849,-2.7859,-2.784,-2.7904,-2.7841,-2.7854,-2.7844,-2.7843,-2.7847,-2.7918,-2.792,-2.7922,-2.7923,0,-2.797,-2.795,-2.796,-2.7965,-2.7973,-2.7974,-2.7972,-2.7984,-2.7935,-2.7947,-2.7964,-2.797,-2.7982,-2.7996,-2.8,-2.7991,-2.795,-2.7943,-2.7956,-2.7972,-2.7985,-2.7981,-2.7779,-2.794,-2.7938,-2.7937,-2.7936,-2.7935,-2.8089,-2.8114,-2.81,-2.8113,-2.8106,-2.8105,-2.8126,-2.8104,-2.8116,-2.8122,-2.8094,-2.8118,-2.8107,-2.8107,-2.8102,-2.8121,-2.8092,-2.8111,-2.8116,-2.8122,-2.8132,-2.798,-2.8121,-2.812,-2.812,-2.8119,-2.8119,0,-2.8244,-2.8232,-2.8244,-2.8242,-2.8253,-2.8211,-2.8207,-2.8219,-2.824,-2.8233,-2.8241,-2.8261,-2.8274,-2.825,-2.8259,-2.8279,-2.826,-2.8283,-2.8282,-2.8281,-2.8156,-2.8144,-2.8298,-2.8298,-2.8298,-2.8298,-2.8298,-2.8298,-2.8326,-2.8366,-2.8345,-2.8382,-2.8369,-2.8391,-2.8392,-2.8391,-2.8385,-2.8409,-2.842,-2.8403,-2.8389,-2.8397,-2.8408,-2.84,-2.8407,-2.8437,-2.8424,-2.8307,-2.829,-2.8273,-2.8263,-2.8438,-2.8439,-2.8548,-2.8549,-2.855]},{"header":{"parameterUnit":"m.s-1","parameterCategory":1,"la1":30.2991,"la2":30.254,"lo1":-89.0895,"lo2":-89.0444,"dx":0.0017,"dy":0.0017,"nx":28,"ny":28,"refTime":"2023-01-21T15:00:00:Z","depth":0,"parameterNumber":3,"parameterNumberName":"V-component_of_WINDS"},"data":[0,0,0,0,0,0,0,0,0,0,0,0,0,0,0,0,0,0,0,0,0,0,0,0,0,0,0,0,0,0,0,0,0,0,0,0,0,0,0,0,0,0,0,0,0,0,0,0,0,0,0,0,0,0,0,0,0,0,-4.7481,-4.7482,0,-4.7586,-4.7588,-4.7589,-4.7546,-4.7544,-4.7541,-4.7539,-4.7643,-4.7648,-4.7653,0,0,0,0,0,0,0,0,0,0,0,0,0,-4.7239,-4.7243,-4.7481,-4.7483,-4.7484,-4.7586,-4.7588,-4.7589,-4.7547,-4.7544,-4.7541,-4.7538,-4.7641,-4.7647,-4.7653,0,0,0,0,0,0,0,0,0,0,0,0,0,-4.7344,-4.7245,-4.7481,-4.7475,-4.7476,-4.7586,-4.7588,-4.759,-4.7547,-4.7544,-4.754,-4.7537,-4.7639,-4.7646,-4.7654,-4.7775,0,0,-4.7677,-4.768,0,0,0,0,0,0,0,0,-4.7338,-4.7353,-4.7475,-4.7476,-4.7477,-4.755,-4.754,-4.7652,-4.7548,-4.752,-4.7539,-4.7535,-4.7614,-4.7624,-4.7652,-4.778,-4.7784,-4.7678,-4.7682,-4.7686,-4.7688,0,0,0,0,0,0,0,-4.7331,-4.7348,-4.7523,-4.7476,-4.7478,-4.7466,-4.7477,-4.7561,-4.7587,-4.7522,-4.7519,-4.7533,-4.7614,-4.7644,-4.7654,-4.7786,-4.7678,-4.7684,-4.7689,-4.7692,-4.8017,-4.8021,0,0,0,0,0,0,-4.7324,-4.7342,-4.7519,-4.7526,-4.7397,-4.7473,-4.7485,-4.753,-4.7586,-4.7591,-4.7536,-4.753,-4.7633,-4.7645,-4.7657,-4.7802,-4.7686,-4.7693,-4.7697,-4.8013,-4.8018,-4.8022,0,0,0,0,0,0,-4.7319,-4.734,-4.7515,-4.7433,-4.7455,-4.7481,-4.7532,-4.7534,-4.7564,-4.7596,-4.76,-4.7562,-4.7631,-4.7646,-4.7746,-4.7805,-4.7696,-4.7703,-4.8008,-4.8014,-4.802,-4.8093,0,0,0,0,0,0,-4.7312,-4.7338,-4.7386,-4.7435,-4.7459,-4.7604,-4.7535,-4.7539,-4.7578,-4.7572,-4.7622,-4.7626,-4.7629,-4.7735,-4.7754,-4.7814,-4.7709,-4.8003,-4.8011,-4.8018,-4.8085,-4.8101,-4.8114,0,0,0,0,0,-4.7303,-4.7402,-4.7389,-4.741,-4.752,-4.7607,-4.7621,-4.7624,-4.7583,-4.763,-4.765,-4.7625,-4.7795,-4.7745,-4.7766,-4.7829,-4.7999,-4.8009,-4.8017,-4.8079,-4.8098,-4.8114,0,0,0,0,0,0,-4.7358,-4.7408,-4.7394,-4.7511,-4.7556,-4.76,-4.766,-4.7644,-4.7699,-4.7691,-4.769,-4.7702,-4.7804,-4.7826,-4.777,-4.7948,-4.7891,-4.7905,-4.7931,-4.7949,-4.7963,-4.7955,-4.7715,0,0,0,0,0,-4.7384,-4.7453,-4.7492,-4.7591,-4.7614,-4.7634,-4.7672,-4.767,-4.7715,-4.7733,-4.7761,-4.7804,-4.7867,-4.7909,-4.7969,-4.8088,-4.8098,-4.8141,-4.8156,-4.8167,-4.8179,-4.8243,-4.8263,-4.8052,-4.8052,-4.8052,0,0,-4.7438,-4.7473,-4.7517,-4.7603,-4.7637,-4.7707,-4.765,-4.7726,-4.7777,-4.7744,-4.784,-4.7862,-4.791,-4.802,-4.8069,-4.8041,-4.8239,-4.8179,-4.8188,-4.8194,-4.8254,-4.8274,-4.8292,-4.8058,-4.8057,-4.8056,0,0,-4.7571,-4.7606,-4.7692,-4.7728,-4.778,-4.7792,-4.7813,-4.786,-4.7874,-4.797,-4.7947,-4.8006,-4.8116,-4.8151,-4.8183,-4.8329,-4.8308,-4.8348,-4.8423,-4.8485,-4.8502,-4.8517,-4.8568,-4.8587,-4.836,-4.836,-4.836,0,-4.7631,-4.7737,-4.7738,-4.7817,-4.7855,-4.783,-4.7916,-4.795,-4.8019,-4.8045,-4.8013,-4.8149,-4.818,-4.8297,-4.8333,-4.836,-4.8382,-4.8343,-4.85,-4.8514,-4.8528,-4.8577,-4.8597,-4.8365,-4.8364,-4.8364,-4.8363,0,-4.7808,-4.7881,-4.7945,-4.8014,-4.8059,-4.8141,-4.8153,-4.8198,-4.8192,-4.8206,-4.8304,-4.834,-4.8406,-4.8434,-4.8428,-4.855,-4.8531,-4.8499,-4.8441,-4.8553,-4.8599,-4.8618,-4.8372,-4.837,-4.8368,-4.8367,0,0,-4.798,-4.8048,-4.8071,-4.8102,-4.8158,-4.8214,-4.8294,-4.836,-4.8398,-4.8446,-4.8513,-4.8605,-4.8576,-4.8613,-4.861,-4.8665,-4.8777,-4.8626,-4.8627,-4.8653,-4.8913,-4.8937,-4.8959,-4.8763,-4.8767,-4.877,-4.8909,0,-4.8118,-4.8261,-4.8264,-4.8394,-4.8461,-4.8437,-4.8506,-4.8547,-4.8562,-4.862,-4.8636,-4.8702,-4.8659,-4.8681,-4.8734,-4.8753,-4.883,-4.8742,-4.8824,-4.8827,-4.8813,-4.8983,-4.9009,-4.9139,-4.8927,-4.893,-4.8933,0,-4.8299,-4.8354,-4.8491,-4.8537,-4.8565,-4.8628,-4.8688,-4.8744,-4.8789,-4.8796,-4.8837,-4.8826,-4.8905,-4.8845,-4.8954,-4.8895,-4.8928,-4.8942,-4.8947,-4.8955,-4.8887,-4.8996,-4.9181,-4.92,-4.8961,-4.8959,-4.8957,0,-4.8411,-4.8519,-4.8615,-4.8642,-4.8697,-4.8742,-4.8766,-4.8808,-4.8847,-4.8899,-4.8924,-4.8984,-4.9017,-4.9063,-4.9068,-4.9023,-4.9178,-4.9117,-4.9185,-4.9185,-4.9219,-4.9217,-4.9412,-4.924,-4.924,-4.9239,-4.9239,0,-4.8565,-4.865,-4.8666,-4.8725,-4.8819,-4.882,-4.8912,-4.8933,-4.897,-4.9031,-4.9013,-4.907,-4.9073,-4.9132,-4.9135,-4.9225,-4.924,-4.9247,-4.9247,-4.9249,-4.9248,-4.9271,-4.9262,-4.9245,-4.9243,-4.9242,-4.9241,0,-4.8706,-4.872,-4.8824,-4.8868,-4.888,-4.8948,-4.8984,-4.904,-4.9053,-4.9131,-4.9149,-4.9169,-4.9237,-4.9246,-4.9325,-4.9327,-4.9435,-4.9425,-4.9421,-4.9419,-4.9486,-4.948,-4.9703,-4.9732,-4.9541,-4.9543,-4.9544,0,-4.8804,-4.8869,-4.892,-4.8961,-4.8988,-4.9054,-4.9094,-4.9097,-4.9139,-4.9195,-4.9243,-4.9309,-4.9363,-4.9472,-4.9492,-4.9552,-4.9544,-4.9618,-4.9553,-4.9553,-4.9545,-4.9542,-4.9548,-4.9631,-4.9633,-4.9635,-4.9636,0,-4.8976,-4.898,-4.904,-4.9102,-4.9151,-4.92,-4.9245,-4.9279,-4.9288,-4.9336,-4.9406,-4.9447,-4.9528,-4.9593,-4.9653,-4.9676,-4.9657,-4.9656,-4.9675,-4.9678,-4.9673,-4.9677,-4.9455,-4.9651,-4.965,-4.9649,-4.9648,-4.9647,-4.9099,-4.9155,-4.92,-4.9267,-4.9302,-4.9345,-4.9399,-4.9419,-4.9478,-4.9546,-4.9543,-4.962,-4.9661,-4.9739,-4.9766,-4.9825,-4.98,-4.9828,-4.9835,-4.9841,-4.9848,-4.9663,-4.9835,-4.9835,-4.9834,-4.9834,-4.9834,0,-4.927,-4.9298,-4.9359,-4.9424,-4.9477,-4.9456,-4.9505,-4.9549,-4.9618,-4.9659,-4.9712,-4.9791,-4.9854,-4.988,-4.9941,-4.9983,-4.9976,-4.9999,-4.9997,-5.0002,-4.9867,-4.9844,-5.0004,-5.0004,-5.0004,-5.0004,-5.0004,-5.0004,-4.9365,-4.946,-4.9469,-4.9579,-4.9605,-4.9682,-4.9712,-4.9751,-4.9784,-4.9874,-4.9927,-4.9943,-4.9978,-5.0041,-5.0098,-5.0103,-5.0127,-5.0154,-5.0156,-5.0029,-5.0012,-4.9995,-4.9974,-5.0159,-5.0159,-5.0286,-5.0288,-5.0288]}]]